Tracking 31030 objects as of 15-Jul-2025
HD Live streaming from Space Station
objects crossing your sky now

STARLINK-1153

Track STARLINK-1153 now!
10-day predictions
STARLINK-1153 is classified as:


NORAD ID: 45080
Int'l Code: 2020-006AN
Perigee: 553.5 km
Apogee: 555.2 km
Inclination: 53.1 °
Period: 95.6 minutes
Semi major axis: 6925 km
RCS: Unknown
Launch date: January 29, 2020
Source: United States (US)
Launch site: AIR FORCE EASTERN TEST RANGE (AFETR)
Your satellite tracking list
Your tracking list is empty




NASA's NSSDC Master Catalog

Two Line Element Set (TLE):
1 45080U 20006AN  25195.46426601 -.00001736  00000-0 -97719-4 0  9992
2 45080  53.0555 256.0591 0001254  92.1148 267.9985 15.06390542300832
Source of the keplerian elements: AFSPC